This is the latest recevied weather packets stored in our database for station/object N4DRV. If no packets are shown the sender has not sent any weather packets the latest 10 day(s).
| Time | Temp. | Humidity | Pressure | Rain* | Wind** | Luminosity | Snow |
|---|---|---|---|---|---|---|---|
| 1777461909 | 16.67° C | 99% | 1015.9 hPa | 0.25 mm | - | - | - |
| 1777461327 | 16.67° C | 99% | 1015.7 hPa | 0.25 mm | - | - | - |
| 1777460120 | 16.67° C | 99% | 1015.6 hPa | 0.51 mm | - | - | - |
| 1777456513 | 16.67° C | 98% | 1017.5 hPa | 1.52 mm | - | - | - |
| 1777455915 | 16.67° C | 98% | 1017.3 hPa | 1.52 mm | - | - | - |
| 1777454712 | 16.67° C | 98% | 1017.1 hPa | 2.29 mm | - | - | - |
| 1777453554 | 16.67° C | 98% | 1017.8 hPa | 3.05 mm | - | - | - |
| 1777451126 | 16.67° C | 98% | 1018.5 hPa | 4.57 mm | - | - | - |
| 1777450524 | 16.67° C | 98% | 1018.5 hPa | 4.57 mm | - | - | - |
| 1777449963 | 16.67° C | 98% | 1018.3 hPa | 4.32 mm | - | - | - |
| 1777447518 | 16.67° C | 97% | 1017.9 hPa | 1.27 mm | - | - | - |
| 1777443324 | 16.67° C | 96% | 1017.5 hPa | 0 mm | - | - | - |
| 1777442748 | 16.67° C | 96% | 1017.5 hPa | 0 mm | - | - | - |
| 1777442121 | 16.67° C | 95% | 1016.7 hPa | 0 mm | - | - | - |
| 1777440320 | 16.67° C | 95% | 1016.5 hPa | 0 mm | - | - | - |
| 1777436736 | 17.22° C | 94% | 1017 hPa | 0 mm | - | - | - |
| 1777434931 | 17.22° C | 94% | 1017.4 hPa | 0 mm | - | - | - |
| 1777431325 | 17.22° C | 93% | 1017.4 hPa | 0 mm | - | - | - |
| 1777424129 | 17.78° C | 91% | 1020.7 hPa | 0 mm | - | - | - |
| 1777419941 | 18.33° C | 90% | 1019 hPa | 0 mm | - | - | - |
| 1777419340 | 18.33° C | 90% | 1018.7 hPa | 0 mm | - | - | - |
| 1777418739 | 18.89° C | 90% | 1018.6 hPa | 0 mm | - | - | - |
| 1777414527 | 18.89° C | 88% | 1019.5 hPa | 0 mm | - | - | - |
| 1777413952 | 19.44° C | 88% | 1019.1 hPa | 0 mm | - | - | - |
| 1777410346 | 19.44° C | 90% | 1019.5 hPa | 0 mm | - | - | - |
* Rain latest hour (hover to see other rain measurements)
** Current wind speed in m/s (hover to see current wind gust speed)